GW6068 Weather Reports


Display with metric or nautical units.
time (UTC)temp
F
wind
direction
speed
MPH
gust
MPH
rain 1hr
in
rain 24hr
in
rain mn
in
humidity
%
barometer
mb
20260504023720 53 356 7.0 23.0 0.00 0.00 0.00 60 1054.9
20260504023216 53 0 10.0 27.0 0.00 0.00 0.00 61 1054.7
20260504022712 53 0 20.0 29.0 0.00 0.00 0.00 60 1054.8
20260504022208 54 333 13.0 30.0 0.00 0.00 0.00 59 1054.4
20260504021706 55 355 15.0 26.0 0.00 0.00 0.00 57 1054.2
20260504021202 56 352 7.0 22.0 0.00 0.00 0.00 55 1053.6
20260504020659 57 347 22.0 32.0 0.00 0.00 0.00 53 1054.4
20260504020155 60 10 12.0 40.0 0.00 0.00 0.00 46 1053.3
20260504015652 65 330 18.0 21.0 0.00 0.00 0.00 38 1052.5
20260504015148 64 325 7.0 10.0 0.00 0.00 0.00 39 1052.1
20260504014644 64 313 4.0 5.0 0.00 0.00 0.00 39 1051.8
20260504014142 64 288 3.0 3.0 0.00 0.00 0.00 38 1051.9
20260504013639 65 292 4.0 8.0 0.00 0.00 0.00 37 1051.8
20260504013136 65 319 6.0 10.0 0.00 0.00 0.00 37 1052.2
20260504012633 66 278 2.0 6.0 0.00 0.00 0.00 37 1052.1
20260504012131 66 279 5.0 5.0 0.00 0.00 0.00 36 1052.2
20260504011628 66 298 5.0 6.0 0.00 0.00 0.00 36 1052.1
20260504011124 66 286 3.0 6.0 0.00 0.00 0.00 36 1052.3
20260504010620 66 292 3.0 10.0 0.00 0.00 0.00 36 1052.2
20260504010116 66 293 5.0 10.0 0.00 0.00 0.00 36 1052.5
20260504005613 66 288 3.0 6.0 0.00 0.00 0.00 37 1052.6
20260504005110 67 302 4.0 11.0 0.00 0.00 0.00 36 1052.5
20260504004608 67 312 8.0 14.0 0.00 0.00 0.00 35 1052.3
20260504004105 67 305 6.0 9.0 0.00 0.00 0.00 36 1052.3
20260504003601 68 310 8.0 12.0 0.00 0.00 0.00 35 1052.6
20260504003058 68 312 13.0 18.0 0.00 0.00 0.00 34 1052.6
20260504002555 68 329 8.0 9.0 0.00 0.00 0.00 35 1052.7
20260504002052 68 308 5.0 9.0 0.00 0.00 0.00 34 1052.7
20260504001550 68 333 5.0 12.0 0.00 0.00 0.00 34 1052.3
20260504001045 68 332 6.0 14.0 0.00 0.00 0.00 33 1052.7
20260504000543 68 357 4.0 11.0 0.00 0.00 0.00 33 1052.9
20260504000040 68 326 8.0 8.0 0.00 0.00 0.00 33 1052.9
20260503235538 69 325 12.0 13.0 0.00 0.00 0.00 32 1052.9
20260503235035 69 324 7.0 13.0 0.00 0.00 0.00 32 1052.9
20260503234532 69 326 7.0 15.0 0.00 0.00 0.00 31 1053.2
20260503234031 71 306 13.0 17.0 0.00 0.00 0.00 29 1053.3
20260503233527 72 286 9.0 19.0 0.00 0.00 0.00 25 1053.1
20260503233023 73 273 13.0 18.0 0.00 0.00 0.00 24 1053.0
20260503232520 73 266 14.0 21.0 0.00 0.00 0.00 23 1053.2
20260503232018 73 271 18.0 23.0 0.00 0.00 0.00 23 1053.4
20260503231515 73 273 18.0 21.0 0.00 0.00 0.00 23 1053.6
20260503231012 73 274 15.0 20.0 0.00 0.00 0.00 23 1053.4
20260503230508 73 272 19.0 23.0 0.00 0.00 0.00 22 1053.6
20260503230006 74 275 15.0 25.0 0.00 0.00 0.00 22 1053.7
20260503225503 74 280 20.0 25.0 0.00 0.00 0.00 22 1053.9
20260503224958 74 271 17.0 19.0 0.00 0.00 0.00 22 1054.0
20260503224455 75 309 15.0 23.0 0.00 0.00 0.00 22 1054.1
20260503223953 74 278 15.0 18.0 0.00 0.00 0.00 22 1054.3
20260503223451 74 273 18.0 21.0 0.00 0.00 0.00 22 1054.3
20260503222946 75 290 12.0 21.0 0.00 0.00 0.00 22 1054.5
20260503222445 74 269 17.0 22.0 0.00 0.00 0.00 22 1054.7
20260503221943 74 272 17.0 24.0 0.00 0.00 0.00 22 1054.7
20260503221440 74 275 23.0 31.0 0.00 0.00 0.00 22 1054.8
20260503220937 75 269 17.0 27.0 0.00 0.00 0.00 21 1055.0
20260503220433 75 268 22.0 25.0 0.00 0.00 0.00 21 1055.0
20260503215931 75 275 20.0 26.0 0.00 0.00 0.00 21 1055.2
20260503215427 75 277 15.0 26.0 0.00 0.00 0.00 21 1055.3
20260503214925 76 274 17.0 21.0 0.00 0.00 0.00 22 1055.2
20260503214423 75 264 20.0 24.0 0.00 0.00 0.00 22 1055.4
20260503213920 75 267 18.0 27.0 0.00 0.00 0.00 21 1055.4
20260503213418 75 267 18.0 22.0 0.00 0.00 0.00 22 1055.7
20260503212914 74 280 24.0 31.0 0.00 0.00 0.00 22 1055.8
20260503212412 74 273 19.0 32.0 0.00 0.00 0.00 23 1055.9
20260503211909 76 268 19.0 29.0 0.00 0.00 0.00 21 1056.0
20260503211406 75 264 18.0 23.0 0.00 0.00 0.00 21 1056.2
20260503210901 75 257 19.0 25.0 0.00 0.00 0.00 21 1056.3
20260503210358 75 275 26.0 27.0 0.00 0.00 0.00 21 1056.4
20260503205852 75 273 16.0 26.0 0.00 0.00 0.00 21 1056.5
20260503205350 75 263 19.0 23.0 0.00 0.00 0.00 21 1056.8
20260503204846 74 260 16.0 25.0 0.00 0.00 0.00 21 1057.0
20260503204344 73 266 15.0 22.0 0.00 0.00 0.00 22 1057.1
20260503203841 74 265 15.0 24.0 0.00 0.00 0.00 22 1057.1
20260503203338 75 256 22.0 28.0 0.00 0.00 0.00 21 1057.4
20260503202835 75 262 13.0 28.0 0.00 0.00 0.00 21 1057.6
20260503202333 75 255 16.0 29.0 0.00 0.00 0.00 21 1057.6
20260503201832 75 259 22.0 31.0 0.00 0.00 0.00 21 1057.7
20260503201328 74 266 19.0 24.0 0.00 0.00 0.00 21 1057.8
20260503200826 74 256 18.0 28.0 0.00 0.00 0.00 21 1057.8
20260503200321 73 273 17.0 25.0 0.00 0.00 0.00 21 1057.9
20260503195819 74 277 18.0 24.0 0.00 0.00 0.00 20 1058.1
20260503195315 74 269 18.0 25.0 0.00 0.00 0.00 19 1058.1
20260503194813 73 285 16.0 22.0 0.00 0.00 0.00 22 1058.2
20260503194308 74 275 19.0 24.0 0.00 0.00 0.00 21 1058.6
20260503193804 73 266 14.0 18.0 0.00 0.00 0.00 22 1058.3
20260503193300 73 279 19.0 23.0 0.00 0.00 0.00 21 1058.7
20260503192756 72 272 21.0 26.0 0.00 0.00 0.00 21 1058.9
20260503192252 72 274 18.0 26.0 0.00 0.00 0.00 22 1058.9
20260503191749 72 276 15.0 19.0 0.00 0.00 0.00 22 1058.9
20260503191246 71 284 18.0 24.0 0.00 0.00 0.00 22 1059.1
20260503190743 72 279 10.0 21.0 0.00 0.00 0.00 22 1059.4
20260503190239 72 283 19.0 29.0 0.00 0.00 0.00 22 1059.3
20260503185737 72 264 25.0 27.0 0.00 0.00 0.00 20 1059.7
20260503185232 73 276 21.0 21.0 0.00 0.00 0.00 21 1059.8
20260503184727 73 301 17.0 24.0 0.00 0.00 0.00 22 1059.9
20260503184224 73 279 16.0 24.0 0.00 0.00 0.00 21 1060.0
20260503183720 74 280 20.0 25.0 0.00 0.00 0.00 19 1060.3
20260503183217 71 306 12.0 26.0 0.00 0.00 0.00 22 1060.2
20260503182716 70 273 20.0 26.0 0.00 0.00 0.00 22 1060.3
20260503182214 72 273 17.0 24.0 0.00 0.00 0.00 23 1060.5
20260503181709 71 291 17.0 24.0 0.00 0.00 0.00 23 1060.5
20260503181207 72 273 21.0 27.0 0.00 0.00 0.00 23 1060.7
20260503180703 72 280 16.0 26.0 0.00 0.00 0.00 23 1060.8
20260503180202 72 263 18.0 22.0 0.00 0.00 0.00 23 1061.0
20260503175658 71 264 19.0 28.0 0.00 0.00 0.00 23 1061.1
20260503175156 71 269 15.0 24.0 0.00 0.00 0.00 23 1061.3
20260503174652 71 263 21.0 29.0 0.00 0.00 0.00 23 1061.2
20260503174150 71 275 18.0 20.0 0.00 0.00 0.00 24 1061.4
20260503173644 71 272 14.0 21.0 0.00 0.00 0.00 24 1061.7
20260503173141 71 287 13.0 22.0 0.00 0.00 0.00 24 1062.0
20260503172638 71 272 25.0 28.0 0.00 0.00 0.00 24 1061.9
20260503172135 70 265 17.0 25.0 0.00 0.00 0.00 25 1062.2
20260503171631 70 272 23.0 29.0 0.00 0.00 0.00 24 1062.3
20260503171129 70 261 16.0 18.0 0.00 0.00 0.00 24 1062.1
20260503170626 69 269 15.0 24.0 0.00 0.00 0.00 24 1062.6
20260503170123 69 267 21.0 29.0 0.00 0.00 0.00 25 1062.6
20260503150514 57 220 10.0 11.0 0.00 0.00 0.00 38 1065.6
20260503131407 48 265 5.0 6.0 0.00 0.00 0.00 53 1067.3
20260503130904 47 261 4.0 4.0 0.00 0.00 0.00 53 1067.4
20260503130402 47 301 2.0 3.0 0.00 0.00 0.00 56 1067.5
20260503110806 37 12 1.0 4.0 0.00 0.00 0.00 68 1068.4
20260503110303 36 332 2.0 3.0 0.00 0.00 0.00 69 1068.5
20260503100229 38 320 2.0 4.0 0.00 0.00 0.00 64 1068.8
20260503090153 32 326 5.0 5.0 0.00 0.00 0.00 74 1068.5
20260503081624 40 304 3.0 4.0 0.00 0.00 0.00 58 1068.5
20260503081121 41 318 3.0 7.0 0.00 0.00 0.00 58 1068.4
20260503080616 41 309 4.0 4.0 0.00 0.00 0.00 59 1068.7
20260503080113 41 335 2.0 3.0 0.00 0.00 0.00 59 1068.5
20260503072550 39 317 3.0 3.0 0.00 0.00 0.00 59 1068.8
20260503072048 40 283 3.0 4.0 0.00 0.00 0.00 58 1068.8
20260503071544 40 317 4.0 5.0 0.00 0.00 0.00 59 1068.9
20260503071041 39 297 2.0 4.0 0.00 0.00 0.00 60 1068.7
20260503070537 40 282 2.0 5.0 0.00 0.00 0.00 58 1068.9
20260503054957 47 31 1.0 3.0 0.00 0.00 0.00 47 1068.8
20260503054453 48 309 2.0 3.0 0.00 0.00 0.00 46 1069.2
20260503053951 49 339 3.0 4.0 0.00 0.00 0.00 45 1068.9
20260503053448 49 344 4.0 6.0 0.00 0.00 0.00 45 1068.8
20260503052945 49 354 3.0 4.0 0.00 0.00 0.00 45 1069.0
20260503052443 50 332 2.0 5.0 0.00 0.00 0.00 44 1069.0
20260503051938 50 25 2.0 5.0 0.00 0.00 0.00 43 1068.8
20260503051434 51 316 4.0 8.0 0.00 0.00 0.00 43 1069.0
20260503050932 51 357 7.0 8.0 0.00 0.00 0.00 43 1069.1
20260503050427 51 19 5.0 6.0 0.00 0.00 0.00 42 1069.0
20260503045926 51 0 8.0 10.0 0.00 0.00 0.00 41 1069.1
20260503045423 52 355 2.0 9.0 0.00 0.00 0.00 41 1069.2
20260503044919 52 355 7.0 12.0 0.00 0.00 0.00 41 1069.1
20260503044416 52 354 9.0 12.0 0.00 0.00 0.00 41 1069.0
20260503043914 52 338 3.0 11.0 0.00 0.00 0.00 40 1069.2
20260503043410 53 350 6.0 13.0 0.00 0.00 0.00 40 1069.1
20260503042907 53 353 7.0 15.0 0.00 0.00 0.00 39 1069.1
20260503042403 53 349 8.0 12.0 0.00 0.00 0.00 39 1069.2
20260503041859 53 4 12.0 15.0 0.00 0.00 0.00 38 1069.3
20260503041357 53 14 12.0 19.0 0.00 0.00 0.00 38 1069.2
20260503040854 53 2 6.0 14.0 0.00 0.00 0.00 39 1069.2
20260503040352 53 2 11.0 14.0 0.00 0.00 0.00 39 1069.2
20260503035848 53 351 3.0 16.0 0.00 0.00 0.00 39 1069.2
20260503035345 53 344 9.0 15.0 0.00 0.00 0.00 39 1069.3
20260503034842 53 339 6.0 12.0 0.00 0.00 0.00 38 1069.0
20260503034340 54 342 9.0 14.0 0.00 0.00 0.00 38 1069.2
20260503033837 54 338 13.0 17.0 0.00 0.00 0.00 37 1069.0
20260503033335 54 348 13.0 14.0 0.00 0.00 0.00 38 1069.1
20260503032832 54 338 9.0 17.0 0.00 0.00 0.00 37 1069.0
20260503032331 55 337 7.0 18.0 0.00 0.00 0.00 37 1069.0
20260503031828 55 335 5.0 11.0 0.00 0.00 0.00 36 1069.1
20260503031326 55 351 8.0 16.0 0.00 0.00 0.00 36 1069.0
20260503030822 55 336 7.0 15.0 0.00 0.00 0.00 36 1068.9
20260503030319 55 356 7.0 21.0 0.00 0.00 0.00 36 1068.9
20260503025815 54 330 6.0 14.0 0.00 0.00 0.00 37 1069.0
20260503025313 55 331 6.0 13.0 0.00 0.00 0.00 37 1068.8
20260503024809 55 316 10.0 12.0 0.00 0.00 0.00 37 1068.7
20260503024306 55 345 8.0 14.0 0.00 0.00 0.00 36 1068.7